Change the Weather History Date:

Sunday, September 16, 2012

  Actual Average Record
Temperature  
Mean Temperature 70 °F -  
Max Temperature 78 °F 79 °F 87 °F (1998)
Min Temperature 64 °F 63 °F 55 °F (2000)
Cooling Degree Days 6    
Growing Degree Days 20 (Base 50)    
Moisture  
Dew Point 59 °F    
Average Humidity 67    
Maximum Humidity 87    
Minimum Humidity 43    
Precipitation  
Precipitation 0.02 in - - ()
Sea Level Pressure  
Sea Level Pressure 30.13 in    
Wind  
Wind Speed 3 mph ()    
Max Wind Speed 9 mph    
Max Gust Speed -    
Visibility 10.0 miles    
Events      
Averages and records for this station are not official NWS values.
T = Trace of Precipitation, MM = Missing Value Source: Averaged Metar Reports

Daily Weather History Graph

Daily Weather History Graph

Search for Another Location

Airport or City:

Trip Planner

Search our weather history database for the weather conditions in past years. The results will help you decide how hot, cold, wet, or windy it might be!

Date:

Astronomy

Sep. 16, 2012 Rise Set
Actual Time 6:51 AM EDT 7:12 PM EDT
Civil Twilight 6:26 AM EDT 7:37 PM EDT
Nautical Twilight 5:56 AM EDT 8:07 PM EDT
Astronomical Twilight 5:26 AM EDT 8:37 PM EDT
Moon 7:24 AM EDT (9/16) 7:21 PM EDT (9/16)
Length of Visible Light 13h 11m
Length of Day
12h 20m
New Moon, 0% of the Moon is Illuminated
Sep 16
New Moon
Sep 22
First Quarter
Sep 29
Full
Oct 8
Last Quarter
Oct 15
New

Hourly Weather History & Observations

Time (EDT) Temp. Dew Point Humidity Pressure Visibility Wind Dir Wind Speed Gust Speed Precip Events Conditions
12:54 AM 66.0 °F 60.1 °F 81% 30.14 in 10.0 mi Calm Calm - N/A   Clear
1:54 AM 66.9 °F 59.0 °F 76% 30.14 in 10.0 mi North 3.5 mph - N/A   Mostly Cloudy
2:54 AM 64.9 °F 60.1 °F 84% 30.13 in 10.0 mi Calm Calm - N/A   Partly Cloudy
3:54 AM 64.0 °F 60.1 °F 87% 30.12 in 10.0 mi Calm Calm - N/A   Clear
4:54 AM 66.0 °F 59.0 °F 78% 30.13 in 10.0 mi NNE 4.6 mph - N/A   Mostly Cloudy
5:54 AM 66.0 °F 59.0 °F 78% 30.13 in 10.0 mi NE 5.8 mph - N/A   Clear
6:54 AM 66.9 °F 59.0 °F 76% 30.14 in 10.0 mi NE 4.6 mph - N/A   Mostly Cloudy
7:54 AM 68.0 °F 59.0 °F 73% 30.15 in 10.0 mi ENE 5.8 mph - N/A   Mostly Cloudy
8:54 AM 71.1 °F 61.0 °F 70% 30.16 in 10.0 mi NE 4.6 mph - N/A   Mostly Cloudy
9:54 AM 73.9 °F 55.9 °F 53% 30.16 in 10.0 mi East 6.9 mph - N/A   Scattered Clouds
10:54 AM 75.9 °F 57.9 °F 54% 30.16 in 10.0 mi East 8.1 mph - N/A   Scattered Clouds
11:54 AM 77.0 °F 59.0 °F 54% 30.15 in 10.0 mi NNE 8.1 mph - N/A   Mostly Cloudy
12:54 PM 75.9 °F 55.9 °F 50% 30.14 in 10.0 mi ENE 4.6 mph - N/A   Overcast
1:54 PM 75.0 °F 55.0 °F 50% 30.14 in 10.0 mi NNE 9.2 mph - N/A   Overcast
2:54 PM 75.9 °F 61.0 °F 60% 30.12 in 10.0 mi ENE 4.6 mph - 0.02 in   Overcast
3:54 PM 75.9 °F 52.0 °F 43% 30.10 in 10.0 mi ENE 8.1 mph - N/A   Mostly Cloudy
4:54 PM 75.9 °F 57.9 °F 54% 30.09 in 10.0 mi NE 6.9 mph - N/A   Mostly Cloudy
5:54 PM 75.0 °F 57.0 °F 53% 30.09 in 10.0 mi NE 6.9 mph - N/A   Mostly Cloudy
6:54 PM 73.0 °F 61.0 °F 66% 30.10 in 10.0 mi Calm Calm - N/A   Mostly Cloudy
7:54 PM 70.0 °F 62.1 °F 76% 30.10 in 10.0 mi Calm Calm - N/A   Mostly Cloudy
8:54 PM 70.0 °F 61.0 °F 73% 30.11 in 10.0 mi Calm Calm - N/A   Mostly Cloudy
9:54 PM 69.1 °F 61.0 °F 75% 30.11 in 10.0 mi Calm Calm - N/A   Mostly Cloudy
10:54 PM 69.1 °F 61.0 °F 75% 30.12 in 10.0 mi ESE 3.5 mph - N/A   Overcast
11:54 PM 70.0 °F 61.0 °F 73% 30.12 in 10.0 mi Calm Calm - N/A   Overcast